Kenansville, NC

3:15 AM EST on February 24, 2017 (GMT -0500)
Duplin County

Weather History for KDPL - March, 2014

Change the Weather History Date:

Monday, March 17, 2014

  Actual Average (KOAJ) Record (KOAJ)
Temperature  
Mean Temperature 39 °F -  
Max Temperature 44 °F 61 °F 84 °F (2015)
Min Temperature 34 °F 40 °F 28 °F (1997)
Degree Days  
Heating Degree Days 26    
Moisture  
Dew Point 36 °F    
Average Humidity 97    
Maximum Humidity 99    
Minimum Humidity 94    
Precipitation  
Precipitation 0.46 in - - ()
Sea Level Pressure  
Sea Level Pressure 29.87 in    
Wind  
Wind Speed 10 mph (NNE)    
Max Wind Speed 17 mph    
Max Gust Speed 24 mph    
Visibility 7 miles    
Events Rain    
Averages and records for this station are not official NWS values.
T = Trace of Precipitation, MM = Missing Value Source: NWS Daily Summary

Daily Weather History Graph

Daily Weather History Graph

Search for Another Location

Airport or City:

Trip Planner

Search our weather history database for the weather conditions in past years. The results will help you decide how hot, cold, wet, or windy it might be!

Date:

Astronomy

Mar. 17, 2014 Rise Set
Actual Time 7:19 AM EDT 7:21 PM EDT
Civil Twilight 6:54 AM EDT 7:46 PM EDT
Nautical Twilight 6:25 AM EDT 8:15 PM EDT
Astronomical Twilight 5:55 AM EDT 8:45 PM EDT
Moon 8:32 PM EDT (3/17) 7:37 AM EDT (3/17)
Length of Visible Light 12h 51m
Length of Day
12h 01m
Full, 99% of the Moon is Illuminated
Mar 17
Full
Mar 23
Last Quarter
Mar 30
New
Apr 7
First Quarter
Apr 15
Full

Hourly Weather History & Observations

Time (EDT) Temp. Windchill Dew Point Humidity Pressure Visibility Wind Dir Wind Speed Gust Speed Precip Events Conditions
12:15 AM 44.1 °F 40.1 °F 43.2 °F 97% 29.81 in 7.0 mi NNE 6.9 mph - N/A Rain Light Rain
12:35 AM 43.5 °F 39.4 °F 42.8 °F 97% 29.80 in 4.0 mi NNE 6.9 mph - 0.04 in Rain Light Rain
12:55 AM 43.0 °F 37.7 °F 42.3 °F 97% 29.79 in 10.0 mi North 9.2 mph - 0.04 in   Overcast
1:15 AM 42.1 °F 36.6 °F 41.4 °F 97% 29.79 in 10.0 mi NNE 9.2 mph - 0.01 in   Overcast
1:35 AM 42.1 °F 37.1 °F 41.2 °F 97% 29.79 in 10.0 mi North 8.1 mph - 0.01 in   Overcast
1:55 AM 41.9 °F 36.3 °F 41.0 °F 97% 29.80 in 5.0 mi North 9.2 mph - 0.01 in   Overcast
2:15 AM 41.0 °F 33.1 °F 40.3 °F 97% 29.80 in 7.0 mi North 15.0 mph 18.4 mph N/A   Light Drizzle
2:35 AM 40.1 °F 33.2 °F 39.2 °F 97% 29.81 in 4.0 mi North 11.5 mph - 0.01 in Rain Light Rain
2:55 AM 38.8 °F 30.8 °F 37.9 °F 97% 29.81 in 4.0 mi North 13.8 mph 19.6 mph 0.02 in Rain Light Rain
3:15 AM 37.8 °F 28.3 °F 36.9 °F 97% 29.80 in 10.0 mi North 17.3 mph 24.2 mph N/A   Overcast
3:35 AM 37.4 °F 30.8 °F 36.5 °F 97% 29.81 in 10.0 mi NNE 9.2 mph 17.3 mph N/A   Overcast
3:55 AM 37.2 °F 29.1 °F 36.3 °F 97% 29.81 in 7.0 mi NNE 12.7 mph 17.3 mph N/A   Overcast
4:15 AM 37.0 °F 28.5 °F 36.5 °F 98% 29.80 in 4.0 mi North 13.8 mph - N/A   Overcast
4:35 AM 36.9 °F 29.1 °F 36.5 °F 99% 29.80 in 3.0 mi North 11.5 mph - N/A   Overcast
4:55 AM 36.9 °F 30.1 °F 36.3 °F 98% 29.80 in 4.0 mi North 9.2 mph 16.1 mph N/A   Overcast
5:15 AM 36.5 °F 27.8 °F 36.0 °F 98% 29.79 in 4.0 mi North 13.8 mph - N/A   Overcast
5:35 AM 36.5 °F 28.7 °F 36.1 °F 99% 29.80 in 4.0 mi North 11.5 mph - N/A   Overcast
5:55 AM 36.5 °F 30.3 °F 36.0 °F 98% 29.80 in 10.0 mi NNE 8.1 mph 19.6 mph N/A   Overcast
6:15 AM 36.7 °F 29.4 °F 36.0 °F 97% 29.82 in 10.0 mi North 10.4 mph - N/A   Overcast
6:35 AM 36.5 °F 27.8 °F 35.8 °F 97% 29.82 in 10.0 mi NNE 13.8 mph - N/A   Overcast
6:55 AM 36.5 °F 29.7 °F 35.6 °F 97% 29.83 in 7.0 mi NNE 9.2 mph - N/A   Overcast
7:15 AM 36.5 °F 29.2 °F 35.8 °F 97% 29.85 in 10.0 mi NNE 10.4 mph 18.4 mph N/A Rain Light Rain
7:35 AM 36.5 °F 28.7 °F 35.8 °F 97% 29.85 in 7.0 mi North 11.5 mph 16.1 mph 0.01 in Rain Light Rain
7:55 AM 36.1 °F 28.7 °F 35.6 °F 98% 29.86 in 10.0 mi NNE 10.4 mph - 0.01 in Rain Light Rain
8:15 AM 36.1 °F 29.9 °F 35.2 °F 97% 29.86 in 7.0 mi NNE 8.1 mph 18.4 mph 0.01 in Rain Light Rain
8:35 AM 36.0 °F 30.3 °F 35.1 °F 97% 29.85 in 7.0 mi NNE 6.9 mph 16.1 mph 0.02 in Rain Light Rain
8:55 AM 36.1 °F 28.7 °F 35.4 °F 97% 29.86 in 10.0 mi NNE 10.4 mph - 0.03 in   Light Drizzle
9:15 AM 36.5 °F 29.7 °F 35.4 °F 96% 29.87 in 10.0 mi NNE 9.2 mph 21.9 mph N/A   Overcast
9:35 AM 36.5 °F 29.2 °F 35.6 °F 97% 29.86 in 10.0 mi NNE 10.4 mph 16.1 mph N/A   Overcast
9:55 AM 36.1 °F 29.3 °F 35.2 °F 97% 29.85 in 10.0 mi NNE 9.2 mph - N/A   Overcast
10:15 AM 36.1 °F 29.3 °F 35.2 °F 97% 29.86 in 10.0 mi NNE 9.2 mph 19.6 mph N/A   Overcast
10:35 AM 36.5 °F 28.7 °F 35.2 °F 95% 29.87 in 10.0 mi NNE 11.5 mph - N/A   Overcast
10:55 AM 36.7 °F 30.5 °F 35.6 °F 96% 29.86 in 10.0 mi NNE 8.1 mph - N/A   Overcast
11:15 AM 36.9 °F 28.7 °F 35.4 °F 95% 29.89 in 10.0 mi NNE 12.7 mph 17.3 mph N/A   Overcast
11:35 AM 36.9 °F 28.2 °F 35.6 °F 95% 29.89 in 10.0 mi North 13.8 mph - N/A   Overcast
11:55 AM 36.9 °F 30.1 °F 35.6 °F 95% 29.89 in 7.0 mi North 9.2 mph - N/A   Overcast
12:15 PM 36.9 °F 29.1 °F 35.8 °F 96% 29.91 in 4.0 mi North 11.5 mph 18.4 mph N/A   Overcast
12:35 PM 36.9 °F 28.7 °F 36.0 °F 97% 29.91 in 3.0 mi NNE 12.7 mph - N/A   Overcast
12:55 PM 36.9 °F 30.7 °F 35.8 °F 96% 29.92 in 4.0 mi North 8.1 mph - N/A   Overcast
1:15 PM 36.9 °F 31.4 °F 35.8 °F 96% 29.92 in 4.0 mi NNE 6.9 mph - N/A   Overcast
1:35 PM 36.7 °F 29.4 °F 35.8 °F 97% 29.89 in 7.0 mi NNE 10.4 mph - N/A   Overcast
1:55 PM 37.0 °F 28.9 °F 35.8 °F 95% 29.89 in 10.0 mi North 12.7 mph - N/A   Overcast
2:15 PM 37.4 °F 29.8 °F 35.8 °F 94% 29.88 in 10.0 mi NNE 11.5 mph 16.1 mph N/A   Overcast
2:35 PM 37.4 °F 29.8 °F 36.0 °F 95% 29.89 in 7.0 mi NNE 11.5 mph 17.3 mph N/A   Overcast
2:55 PM 37.4 °F 31.4 °F 35.8 °F 94% 29.88 in 7.0 mi NNE 8.1 mph 16.1 mph N/A   Light Drizzle
3:15 PM 37.0 °F 32.4 °F 35.8 °F 95% 29.87 in 7.0 mi NNE 5.8 mph - N/A Rain Light Rain
3:35 PM 37.0 °F 34.5 °F 36.0 °F 96% 29.88 in 5.0 mi NE 3.5 mph - 0.01 in Rain Light Rain
3:55 PM 37.0 °F 29.8 °F 36.1 °F 97% 29.88 in 5.0 mi NNE 10.4 mph - 0.02 in Rain Light Rain
4:15 PM 37.0 °F 32.4 °F 36.1 °F 97% 29.87 in 5.0 mi NNE 5.8 mph - 0.02 in Rain Light Rain
4:35 PM 37.4 °F 30.3 °F 36.3 °F 96% 29.89 in 7.0 mi North 10.4 mph - 0.03 in Rain Light Rain
4:55 PM 37.2 °F 30.0 °F 36.3 °F 97% 29.88 in 5.0 mi North 10.4 mph - 0.04 in Rain Rain
5:15 PM 37.0 °F 29.3 °F 36.1 °F 97% 29.89 in 7.0 mi North 11.5 mph - 0.01 in Rain Rain
5:35 PM 36.5 °F 29.2 °F 35.6 °F 97% 29.88 in 5.0 mi NNE 10.4 mph - 0.03 in Rain Light Rain
5:55 PM 36.5 °F 29.7 °F 35.6 °F 97% 29.88 in 5.0 mi NNE 9.2 mph - 0.06 in Rain Light Rain
6:15 PM 36.0 °F 31.1 °F 35.2 °F 97% 29.88 in 5.0 mi NNE 5.8 mph - 0.01 in Rain Rain
6:35 PM 35.6 °F 28.0 °F 34.9 °F 97% 29.89 in 7.0 mi NNE 10.4 mph - 0.03 in Rain Rain
6:55 PM 35.6 °F 29.9 °F 34.9 °F 97% 29.90 in 7.0 mi NNE 6.9 mph - 0.06 in Rain Rain
7:15 PM 35.6 °F 29.2 °F 35.1 °F 98% 29.89 in 4.0 mi North 8.1 mph - 0.02 in Rain Light Rain
7:35 PM 35.4 °F 29.7 °F 34.7 °F 97% 29.88 in 5.0 mi NNE 6.9 mph - 0.05 in Rain Light Rain
7:55 PM 35.2 °F 29.5 °F 34.7 °F 98% 29.89 in 5.0 mi NNE 6.9 mph - 0.07 in Rain Light Rain
8:15 PM 35.4 °F 29.0 °F 34.9 °F 98% 29.89 in 5.0 mi NNE 8.1 mph - 0.02 in Rain Rain
8:35 PM 35.6 °F 28.0 °F 35.1 °F 98% 29.90 in 7.0 mi North 10.4 mph - 0.04 in Rain Light Rain
8:55 PM 35.6 °F 29.9 °F 34.7 °F 97% 29.90 in 10.0 mi NNE 6.9 mph - 0.04 in Rain Light Rain
9:15 PM 35.1 °F 28.6 °F 34.3 °F 97% 29.92 in 3.0 mi NNE 8.1 mph - 0.02 in Rain Rain
9:35 PM 35.1 °F 27.4 °F 34.3 °F 97% 29.92 in 5.0 mi North 10.4 mph - 0.04 in Rain Light Rain
9:55 PM 34.7 °F 26.4 °F 34.0 °F 97% 29.93 in 7.0 mi NNE 11.5 mph 17.3 mph 0.05 in Rain Light Rain
10:15 PM 34.7 °F 27.5 °F 34.0 °F 97% 29.92 in 5.0 mi NNE 9.2 mph - 0.01 in   Light Drizzle
10:35 PM 34.7 °F 25.5 °F 34.0 °F 97% 29.93 in 7.0 mi NNE 13.8 mph 18.4 mph 0.01 in   Overcast
10:55 PM 34.7 °F 27.5 °F 33.8 °F 97% 29.95 in 10.0 mi North 9.2 mph - 0.01 in   Overcast
11:15 PM 34.5 °F 28.6 °F 34.0 °F 98% 29.95 in 4.0 mi NE 6.9 mph - N/A   Overcast
11:35 PM 34.3 °F 28.4 °F 33.8 °F 98% 29.95 in 4.0 mi NNE 6.9 mph - N/A   Overcast
11:55 PM 34.0 °F 26.6 °F 33.4 °F 98% 29.95 in 7.0 mi NNE 9.2 mph - N/A   Overcast